Location: Corralito
(10.2667°N, 66.9500°W)
Time: 08:43:20
(UTC+00:00)

Haruka - Pass Details

Date: 29 November 2023
Orbit: 529 x 21179 km, 31.2° (Epoch: 24 February)

Event Time Altitude Azimuth Distance (km) Brightness Sun altitude
Rises 23:55:18 0° 289° (WNW) 14,050 10.2 -26.8°
Reaches altitude 10° 00:07:55 10° 284° (WNW) 15,427 10.3 -29.7°
Maximum altitude 01:35:16 28° 258° (WSW) 23,056 10.7 -49.9°
Drops below altitude 10° 05:00:26 10° 157° (SSE) 6,690 7.9 -74.5°
Sets 05:05:46 0° 140° (SE) 6,232 7.9 -73.6°
